Location: Bartshausen
(51.8454°N, 9.8167°E)
Time: 09:06:55
(UTC+00:00)

Lacrosse 5 rocket - Pass Details

Date: 08 November 2025
Orbit: 406 x 492 km, 57.0° (Epoch: 12 December)

Event Time Altitude Azimuth Distance (km) Brightness Sun altitude
Exits shadow 05:19:55 15° 302° (WNW) 1,244 2.5 -10.7°
Maximum altitude 05:22:14 33° 0° (N) 745 1.9 -10.3°
Drops below altitude 10° 05:25:18 10° 67° (ENE) 1,498 4.4 -9.9°
Sets 05:27:29 0° 78° (ENE) 2,350 5.8 -9.6°
